Terug naar catalogus

SKYSAT C12

ActiefWetenschapSSO
NORAD 43797·PAYLOAD·🇺🇸 United States

Gelanceerd Dec 3, 2018 vanaf Vandenberg Space Force Base

Loading…

Volgende Passages (komende 24 uur)

TLE

VersSource: CelesTrak SupGP

Epoch: Sep 14, 2026, 20:49 UTC

1 43797C 18099AR  26257.86789352  .00016671  00000+0  28223-3 0  2574
2 43797  96.9241 277.6506 0004356 164.0180 124.8913 15.51564164    11

Volg SKYSAT C12 in realtime met AllMySat

Download on the App Store